Location: Orange Harbor Mobile Home Park
(26.6923°N, 81.7937°W)
Time: 07:48:12
(UTC+00:00)

Cosmos 1536 - Pass Details

Date: 19 September 2020
Orbit: 540 x 558 km, 82.5° (Epoch: 29 October)

Event Time Altitude Azimuth Distance (km) Brightness Sun altitude
Rises 10:14:08 0° 355° (N) 2,742 6.4 -14.3°
Reaches altitude 10° 10:16:19 10° 357° (N) 1,844 5.6 -13.8°
Maximum altitude 10:20:23 82° 85° (E) 566 2.9 -12.9°
Drops below altitude 10° 10:24:25 10° 173° (S) 1,829 5.5 -12.0°
Sets 10:26:34 0° 174° (S) 2,718 6.4 -11.5°
